This demonstration page uses our WeatherBlox Daily Observations layout. Learn more.

Left ArrowRight Arrow

Hourly Observations for April 13, 2021

Temp ( °F °C ) Dew Point ( °F °C ) Humidity (%) Winds ( mph kmh ) Pressure ( in mb ) Visibility ( mi km ) Precip ( " mm )
12:56 am 00:56 Clear 35 1.7 22 -5.6 59 59 NW 7 11 30.24 1024 10 16 0.00 0.00
1:56 am 01:56 Clear 32 0 23 -5 69 69 NW 7 11 30.25 1024 10 16 0.00 0.00
2:56 am 02:56 Clear 33 0.6 21 -6.1 61 61 NW 12 19 30.24 1024 10 16 0.00 0.00
3:56 am 03:56 Clear 32 0 22 -5.6 66 66 NW 10 17 30.24 1024 10 16 0.00 0.00
4:56 am 04:56 Clear 31 -0.6 22 -5.6 69 69 NW 9 15 30.25 1024 10 16 0.00 0.00
5:56 am 05:56 Clear 30 -1.1 22 -5.6 72 72 NW 7 11 30.26 1025 10 16 0.00 0.00
6:56 am 06:56 Clear 31 -0.6 22 -5.6 69 69 W 8 13 30.28 1025 10 16 0.00 0.00
7:56 am 07:56 Sunny 33 0.6 22 -5.6 64 64 NW 9 15 30.29 1026 7 11 0.00 0.00
8:56 am 08:56 Sunny 37 2.8 22 -5.6 54 54 NNW 16 26 30.31 1026 8 13 0.00 0.00
9:56 am 09:56 Sunny 40 4.4 23 -5 51 51 NNW 18 30 30.30 1026 9 14 0.00 0.00
10:56 am 10:56 Sunny 43 6.1 23 -5 45 45 NNW 15 24 30.30 1026 9 14 0.00 0.00
11:56 am 11:56 Mostly Cloudy 45 7.2 22 -5.6 40 40 NW 13 20 30.31 1026 9 14 0.00 0.00
12:56 pm 12:56 Partly Cloudy 47 8.3 23 -5 39 39 WNW 10 17 30.29 1026 10 16 0.00 0.00
1:56 pm 13:56 Sunny 49 9.4 23 -5 36 36 NW 10 17 30.26 1025 10 16 0.00 0.00
2:56 pm 14:56 Sunny 52 11.1 24 -4.4 34 34 NW 14 22 30.23 1024 8 13 0.00 0.00
3:56 pm 15:56 Sunny 52 11.1 23 -5 32 32 W 8 13 30.21 1023 10 16 0.00 0.00
4:56 pm 16:56 Sunny 55 12.8 23 -5 29 29 WNW 9 15 30.18 1022 10 16 0.00 0.00
5:56 pm 17:56 Sunny 55 12.8 21 -6.1 26 26 W 14 22 30.16 1022 10 16 0.00 0.00
6:56 pm 18:56 Mostly Sunny 55 12.8 21 -6.1 26 26 W 10 17 30.16 1022 10 16 0.00 0.00
7:56 pm 19:56 Sunny 52 11.1 22 -5.6 31 31 NNW 7 11 30.18 1022 10 16 0.00 0.00
8:56 pm 20:56 Clear 45 7.2 25 -3.9 46 46 NW 5 7 30.20 1023 10 16 0.00 0.00
9:56 pm 21:56 Clear 39 3.9 26 -3.3 60 60 NNE 8 13 30.23 1024 10 16 0.00 0.00
10:56 pm 22:56 Clear 39 3.9 24 -4.4 55 55 NNE 13 20 30.26 1025 10 16 0.00 0.00
11:56 pm 23:56 Clear 37 2.8 24 -4.4 59 59 NNE 12 19 30.29 1026 10 16 0.00 0.00

Powered by AerisWeather